• MPC Preparation (Info)

  • MPEC 2000-G47 : 2000 GV127

    The following Minor Planet Electronic Circular may be linked-to from your own Web pages, but must not otherwise be redistributed electronically.

    A form allowing access to any MPEC is at the bottom of this page.


    Read MPEC 2000-G46 Read MPEC 2000-G48


    M.P.E.C. 2000-G47                                Issued 2000 Apr. 13, 17:15 UT
    
         The Minor Planet Electronic Circulars contain information on unusual
             minor planets and routine data on comets.  They are published
       on behalf of Commission 20 of the International Astronomical Union by the
              Minor Planet Center, Smithsonian Astrophysical Observatory,
                              Cambridge, MA 02138, U.S.A.
    
                 Prepared using the Tamkin Foundation Computer Network
    
                 BMARSDEN@CFA.HARVARD.EDU or GWILLIAMS@CFA.HARVARD.EDU
              URL http://cfa-www.harvard.edu/iau/mpc.html  ISSN 1523-6714
    
                                      2000 GV127
    
    Observations:
         K00GC7V* C2000 04 10.12772 09 35 09.30 +08 06 42.4          16.3        704
         K00GC7V  C2000 04 10.14832 09 35 19.61 +08 09 53.6          15.6        704
         K00GC7V  C2000 04 10.16304 09 35 27.01 +08 12 10.1          16.1        704
         K00GC7V  C2000 04 10.17713 09 35 34.05 +08 14 20.8          16.0        704
         K00GC7V  C2000 04 10.19206 09 35 41.56 +08 16 39.1          15.9        704
         K00GC7V  C2000 04 11.08417 09 43 45.82 +10 38 09.6          16.5 V      860
         K00GC7V  C2000 04 11.08513 09 43 46.30 +10 38 18.0          16.5 V      860
         K00GC7V  C2000 04 11.08606 09 43 46.79 +10 38 27.9          16.4 V      860
         K00GC7V  C2000 04 11.15318 09 44 28.22 +10 47 59.4                      670
         K00GC7V  C2000 04 11.19348 09 44 49.87 +10 54 26.3                      670
         K00GC7V  C2000 04 11.25519 09 45 23.18 +11 04 18.0                      670
         K00GC7V  C2000 04 11.43417 09 47 06.97 +11 34 27.0          16.2 R      428
         K00GC7V  C2000 04 11.43594 09 47 07.98 +11 34 42.8          16.4 R      428
         K00GC7V  C2000 04 11.43766 09 47 08.90 +11 35 00.2          16.2 R      428
         K00GC7V  C2000 04 11.43942 09 47 09.92 +11 35 17.2          16.0 R      428
         K00GC7V  C2000 04 11.46521 09 47 25.28 +11 38 05.2          16.4 V      402
         K00GC7V  C2000 04 11.46647 09 47 26.00 +11 38 17.8                      402
         K00GC7V  C2000 04 11.46773 09 47 26.70 +11 38 29.8                      402
         K00GC7V  C2000 04 11.46900 09 47 27.36 +11 38 41.8                      402
         K00GC7V 1C2000 04 11.48174309 47 33.36 +11 42 09.6          16.7 R      413
         K00GC7V 1C2000 04 11.48355809 47 34.35 +11 42 27.3          16.8 R      413
         K00GC7V  C2000 04 11.55380 09 48 14.14 +11 52 22.0          16.7 V      900
         K00GC7V  C2000 04 11.56343 09 48 19.37 +11 53 55.1                      900
         K00GC7V SC2000 04 11.57135 09 48 23.93 +11 55 13.7                      360
         K00GC7V SC2000 04 11.57274 09 48 24.72 +11 55 27.4                      360
         K00GC7V  C2000 04 11.96030 09 52 11.53 +12 58 05.8          16.2 R      046
         K00GC7V  C2000 04 11.96162 09 52 12.21 +12 58 19.2          16.1 R      046
         K00GC7V  C2000 04 12.18034 09 54 25.45 +13 34 27.9                      678
         K00GC7V  C2000 04 12.18325 09 54 27.10 +13 34 57.1          16.3        678
         K00GC7V  C2000 04 12.18889 09 54 30.31 +13 35 51.6          16.2        678
         K00GC7V  C2000 04 12.20008 09 54 36.61 +13 37 44.2          16.6 V      854
         K00GC7V  C2000 04 12.20103 09 54 37.15 +13 37 53.0          16.5 V      854
         K00GC7V  C2000 04 12.20194 09 54 37.68 +13 38 01.5          16.5 V      854
         K00GC7V  C2000 04 12.85483 10 01 19.56 +15 25 21.3                      557
         K00GC7V  C2000 04 12.85543 10 01 19.92 +15 25 27.3                      557
         K00GC7V  C2000 04 12.85601 10 01 20.25 +15 25 33.3                      557
         K00GC7V  C2000 04 12.85663 10 01 20.63 +15 25 39.6                      557
    
    Observer details:
    046 Klet.  Observer M. Tichy.  0.57-m f/5.2 reflector + CCD.
    360 Kuma Kogen.  Observer A. Nakamura.  0.60-m f/6.0 Ritchey-Chretien + CCD.
    402 Dynic Astronomical Observatory.  Observer A. Sugie.  0.60-m f/3.7 reflector
        + CCD.
    413 Siding Spring.  Observer R. H. McNaught.  1.0-m f/8 reflector + CCD.
    428 Reedy Creek.  Observer J. Broughton.  0.25-m f/6.3 Schmidt-Cassegrain
        + CCD.
    557 Ondrejov.  Observer P. Kusnirak.  0.65-m f/3.6 reflector + CCD.
    670 Camarillo.  Observer J. E. Rogers.  0.30-m f/6.7 Helin Telescope + CCD.
    678 Fountain Hills.  Observer C. W. Juels.  0.313-m f/5.44 reflector + CCD.
    704 Lincoln Laboratory ETS, New Mexico.  Observers M. Blythe, F. Shelly,
        M. Bezpalko, M. Elowitz, R. Huber.  Measurers J. Stuart, H. Viggh,
        R. Sayer, J. B. Evans.  1.0-m f/2.15 reflector + CCD.
    854 Sabino Canyon Observatory, Tucson.  Observer J. E. McGaha.  0.30-m f/6.1
        Schmidt-Cassegrain + CCD.
    860 Valinhos.  Observer P. R. Holvorcem.  0.36-m f/3.6 Schmidt-Cassegrain
        + CCD.
    900 Moriyama.  Observer Y. Ikari.  0.25-m f/6.3 reflector + CCD.
    
    Orbital elements:
    2000 GV127
    Epoch 2000 Apr. 6.0 TT = JDT 2451640.5                  Williams
    M 358.37625              (2000.0)            P               Q
    n   0.20831148     Peri.    2.10836     -0.94331115     +0.31894271
    a   2.8183434      Node   197.36817     -0.30884767     -0.94484642
    e   0.6213217      Incl.   17.92384     -0.12156148     -0.07443646
    P   4.73           H   19.2           G   0.15
    From 37 observations 2000 Apr. 10-12.
    
    Ephemeris:
    2000 GV127               a,e,i = 2.82, 0.62, 18                  q = 1.0672
    Date    TT    R. A. (2000) Decl.     Delta      r     Elong.  Phase     V
    2000 04 06    09 03.70   -01 31.8    0.129    1.072   120.7    53.4    16.9
    2000 04 11    09 43.02   +10 23.9    0.113    1.068   123.0    51.9    16.5
    2000 04 16    10 37.31   +24 05.9    0.107    1.068   124.2    51.0    16.4
    2000 04 21    11 45.00   +35 52.4    0.114    1.071   123.1    51.8    16.5
    2000 04 26    12 55.75   +42 51.8    0.131    1.079   120.7    53.3    16.9
    2000 05 01    13 56.61   +45 31.9    0.155    1.091   118.8    54.1    17.3
    2000 05 06    14 42.48   +45 41.7    0.183    1.106   117.7    53.9    17.7
    2000 05 11    15 15.28   +44 40.6    0.214    1.125   117.4    52.9    18.0
    2000 05 16    15 38.66   +43 08.1    0.246    1.146   117.7    51.3    18.3
    2000 05 21    15 55.57   +41 21.3    0.279    1.171   118.4    49.5    18.6
    2000 05 26    16 08.07   +39 26.9    0.313    1.198   119.4    47.4    18.9
    2000 05 31    16 17.57   +37 27.2    0.348    1.228   120.5    45.4    19.1
    2000 06 05    16 25.04   +35 23.1    0.384    1.259   121.7    43.3    19.3
    2000 06 10    16 31.18   +33 15.3    0.421    1.292   122.8    41.3    19.5
    2000 06 15    16 36.45   +31 04.9    0.459    1.327   123.8    39.5    19.7
    2000 06 20    16 41.18   +28 52.7    0.499    1.363   124.7    37.8    19.9
    2000 06 25    16 45.61   +26 39.5    0.540    1.400   125.4    36.3    20.1
    
    2000 07 05    16 54.21   +22 13.6    0.630    1.477   125.9    33.9    20.5
    2000 07 15    17 03.23   +17 55.5    0.730    1.556   125.2    32.2    20.8
    2000 07 25    17 13.06   +13 52.6    0.841    1.637   123.4    31.2    21.2
    2000 08 04    17 23.83   +10 09.6    0.964    1.718   120.5    30.6    21.6
    2000 08 14    17 35.59   +06 49.6    1.098    1.799   116.9    30.2    22.0
    
    Gareth V. Williams           (C) Copyright 2000 MPC           M.P.E.C. 2000-G47
    

    Read MPEC 2000-G46 Read MPEC 2000-G48


    MPEC number:

    Enter an MPEC number in one of the following forms:

    • 1997-B01 (the full form)
    • J97B01 (the packed version of the full form)
    • B01 (the abbreviated form)